Flag for Canada Weather past 2 weeks in Oshawa, Ontario, Canada

54 °F

Partly sunny.

Feels Like: 49 °F
Forecast: N/A
Wind: 18 mph from North

Location: Toronto Buttonville

Current Time: Oct 9, 2015 at 6:12:16 PM

Latest Report: Oct 9, 2015 at 5:00 PM

Visibility: 15 mi

Pressure: 29.96 "Hg

Humidity: 67%

Dew point: 43 °F

Location of OshawaLocation

Historic Weather in Oshawa — Graph


Oshawa temperature yesterday

Maximum temperature yesterday: 57 °F (at 1:00 PM)
Minimum temperature yesterday: 41 °F (at 8:00 AM)
Average temperature yesterday: 50 °F

Past Weeks' High & Low Weather Summary

High72 °F (Sep 24, 4:00 PM)100% (Sep 27, 8:00 AM)30.49 "Hg (Sep 27, 8:00 AM)
Low39 °F (Oct 1, 6:00 AM)34% (Oct 1, 5:00 PM)29.78 "Hg (Oct 9, 7:00 AM)
Average56 °F73%30.21 "Hg
* Reported Sep 24 4:00 PM — Oct 9 4:00 PM, Oshawa, Weather by CustomWeather, © 2015

Note: Actual official high and low records may vary slightly from our data, if they occured in-between our weather recording intervals... More about our weather records


Oshawa weather history for previous 24 hours

Time TempWeatherWind HumidityBarometerVisibility
4:00 PM
Fri, Oct 9
54 °FOvercast.15 mph72%29.93 "Hg15 mi
3:00 PM52 °FOvercast.23 mph82%29.89 "Hg15 mi
2:00 PM54 °FOvercast.21 mph82%29.88 "Hg15 mi
1:00 PM57 °FMostly cloudy.17 mph77%29.85 "Hg15 mi
12:00 PM61 °FMostly cloudy.12 mph77%29.83 "Hg15 mi
11:00 AM59 °FOvercast.8 mph88%29.81 "Hg10 mi
10:00 AM57 °FFog.6 mph94%29.80 "Hg6 mi
9:00 AM54 °FFog.6 mph100%29.79 "Hg5 mi
8:00 AM52 °FFog.3 mph100%29.78 "Hg2 mi
7:00 AM54 °FFog.2 mph94%29.78 "Hg1 mi
6:00 AM52 °FFog.No wind100%29.78 "Hg1 mi
5:00 AM52 °FFog.No wind94%29.79 "Hg1 mi
4:00 AM52 °FFog.2 mph94%29.80 "Hg3 mi
3:00 AM50 °FLight rain. Mostly cloudy.5 mph94%29.83 "Hg8 mi
2:00 AM50 °FLight rain. Mostly cloudy.7 mph94%29.86 "Hg10 mi
1:00 AM48 °FSprinkles. Fog.9 mph94%29.89 "Hg3 mi
12:00 AM50 °FLight rain. Low clouds.10 mph94%29.93 "Hg10 mi
11:00 PM
Thu, Oct 8
50 °FLight rain. Overcast.12 mph88%29.96 "Hg7 mi
10:00 PM50 °FLight rain. Overcast.10 mph82%30.00 "Hg10 mi
9:00 PM52 °FLight rain. Overcast.12 mph77%30.02 "Hg12 mi
8:00 PM54 °FOvercast.13 mph58%30.03 "Hg15 mi
7:00 PM54 °FMostly cloudy.8 mph67%30.05 "Hg15 mi
6:00 PM55 °FPartly sunny.9 mph59%30.06 "Hg15 mi
Weather by CustomWeather, © 2015

See weather overviewHow to use our weather pages